Location: Kunchanapalle
(16.4623°N, 80.6176°E)
Time: 10:15:20
(UTC+00:00)

Cosmos 2058 - Pass Details

Date: 13 August 2020
Orbit: 563 x 582 km, 82.5° (Epoch: 18 September)

Event Time Altitude Azimuth Distance (km) Brightness Sun altitude
Rises 23:40:51 0° 347° (NNW) 2,789 6.5 -10.1°
Reaches altitude 10° 23:43:06 10° 341° (NNW) 1,891 5.6 -9.6°
Maximum altitude 23:47:06 47° 267° (W) 770 3.2 -8.7°
Drops below altitude 10° 23:51:08 10° 193° (SSW) 1,892 5.3 -7.8°
Sets 23:53:22 0° 187° (S) 2,790 6.2 -7.3°
